Location: Newark
(51.3318°N, 0.0053°E)
Time: 10:59:41
(UTC+00:00)

MOZHAYETS 4 - Pass Details

Date: 28 June 2022
Orbit: 660 x 679 km, 98.2° (Epoch: 11 August)

Event Time Altitude Azimuth Distance (km) Brightness Sun altitude
Rises 00:59:47 0° 129° (SE) 3,027 10.8 -14.4°
Reaches altitude 10° 01:02:18 10° 116° (ESE) 2,115 10.2 -14.3°
Maximum altitude 01:06:05 26° 61° (ENE) 1,343 9.8 -14.1°
Drops below altitude 10° 01:09:52 10° 6° (N) 2,118 11.7 -14.0°
Sets 01:12:23 0° 354° (N) 3,034 12.5 -13.8°
